EZY8LD EPWA-LIRF

Flight info

Callsign EZY8LD
Flight time N/A
Altitude 36000
Route EVINA7G EVINA Z175 SKARY DCT MAREG DCT RADLY DCT BAXON/N0439F370 DCT UNUMU DCT ETPOK DCT RITEB RITEB4A
Aircraft A320/M-V/N

Departure

Time 2026-04-30 13:08
Airport Warsaw Chopin Airport (EPWA)

Arrival

Time N/A
Airport Rome–Fiumicino Leonardo da Vinci International Airport (LIRF)
Time Latitude Longitude Altitude Speed Heading
2026-04-30 13:00 52.17337 20.96851 339 ft 0 kts 62°
2026-04-30 13:01 52.17335 20.96844 339 ft 2 kts 62°
2026-04-30 13:01 52.17327 20.96821 334 ft 2 kts 62°
2026-04-30 13:01 52.17319 20.96798 334 ft 2 kts 62°
2026-04-30 13:01 52.17311 20.96774 334 ft 2 kts 62°
2026-04-30 13:02 52.17307 20.96750 334 ft 2 kts 118°
2026-04-30 13:02 52.17313 20.96725 335 ft 2 kts 114°
2026-04-30 13:02 52.17315 20.96715 335 ft 0 kts 143°
2026-04-30 13:03 52.17314 20.96716 334 ft 0 kts 143°
2026-04-30 13:03 52.17313 20.96718 334 ft 0 kts 143°
2026-04-30 13:03 52.17312 20.96719 334 ft 1 kts 143°
2026-04-30 13:04 52.17293 20.96726 335 ft 7 kts 165°
2026-04-30 13:04 52.17244 20.96767 336 ft 8 kts 152°
2026-04-30 13:04 52.17200 20.96804 339 ft 8 kts 152°
2026-04-30 13:04 52.17143 20.96731 339 ft 16 kts 242°
2026-04-30 13:05 52.17043 20.96714 337 ft 19 kts 154°
2026-04-30 13:05 52.16902 20.96833 337 ft 24 kts 151°
2026-04-30 13:05 52.16757 20.96953 339 ft 22 kts 153°
2026-04-30 13:06 52.16613 20.97241 337 ft 19 kts 114°
2026-04-30 13:06 52.16562 20.97425 338 ft 18 kts 114°
2026-04-30 13:06 52.16500 20.97636 335 ft 24 kts 115°
2026-04-30 13:06 52.16442 20.97804 337 ft 13 kts 145°
2026-04-30 13:07 52.16347 20.97756 339 ft 18 kts 206°
2026-04-30 13:07 52.16307 20.97660 338 ft 1 kts 295°
2026-04-30 13:07 52.16310 20.97651 338 ft 0 kts 295°
2026-04-30 13:07 52.16364 20.97456 337 ft 52 kts 295°
2026-04-30 13:08 52.16611 20.96578 336 ft 116 kts 294°
2026-04-30 13:08 52.17020 20.95135 422 ft 155 kts 295°
2026-04-30 13:08 52.17437 20.93545 1146 ft 151 kts 296°
2026-04-30 13:08 52.17843 20.91958 1750 ft 159 kts 297°
2026-04-30 13:09 52.18303 20.90191 2126 ft 179 kts 290°
2026-04-30 13:09 52.18358 20.87995 2323 ft 215 kts 260°
2026-04-30 13:09 52.17803 20.85541 2630 ft 246 kts 249°
2026-04-30 13:09 52.17076 20.82882 3172 ft 265 kts 249°
2026-04-30 13:10 52.16433 20.80087 4230 ft 262 kts 255°
2026-04-30 13:10 52.15964 20.77227 5191 ft 264 kts 261°
2026-04-30 13:10 52.15647 20.74237 5962 ft 272 kts 263°
2026-04-30 13:10 52.15106 20.71246 6795 ft 281 kts 246°
2026-04-30 13:11 52.13914 20.68745 7557 ft 290 kts 223°
2026-04-30 13:11 52.12344 20.66646 8371 ft 295 kts 220°
2026-04-30 13:11 52.10711 20.64580 9175 ft 300 kts 219°
2026-04-30 13:11 52.09039 20.62507 9970 ft 305 kts 218°
2026-04-30 13:12 52.07336 20.60402 10698 ft 310 kts 219°
2026-04-30 13:12 52.05592 20.58238 11203 ft 325 kts 219°
2026-04-30 13:12 52.03736 20.55915 11426 ft 348 kts 219°
2026-04-30 13:13 51.99789 20.50952 12590 ft 366 kts 219°
2026-04-30 13:13 51.97768 20.48412 13250 ft 372 kts 219°
2026-04-30 13:13 51.93122 20.44525 14526 ft 383 kts 193°
2026-04-30 13:14 51.90529 20.43812 15108 ft 384 kts 182°
2026-04-30 13:14 51.87853 20.43422 15716 ft 388 kts 182°
2026-04-30 13:14 51.82419 20.42611 16936 ft 396 kts 182°
2026-04-30 13:15 51.79664 20.42188 17517 ft 400 kts 182°
2026-04-30 13:15 51.74075 20.41329 18705 ft 407 kts 182°
2026-04-30 13:15 51.71238 20.40895 19211 ft 411 kts 182°
2026-04-30 13:16 51.68374 20.40461 19723 ft 415 kts 182°
2026-04-30 13:16 51.65485 20.40025 20232 ft 419 kts 182°
2026-04-30 13:16 51.62573 20.39588 20745 ft 422 kts 182°
2026-04-30 13:17 51.56668 20.38700 21766 ft 430 kts 182°
2026-04-30 13:17 51.53679 20.38249 22272 ft 433 kts 182°
2026-04-30 13:17 51.47625 20.37335 23268 ft 441 kts 182°
2026-04-30 13:18 51.44557 20.36874 23756 ft 444 kts 181°
2026-04-30 13:18 51.38393 20.35353 24573 ft 456 kts 194°
2026-04-30 13:18 51.35419 20.33537 24941 ft 461 kts 204°
2026-04-30 13:19 51.32503 20.31349 25302 ft 465 kts 204°
2026-04-30 13:19 51.29561 20.29150 25655 ft 468 kts 203°
2026-04-30 13:19 51.26596 20.26948 25998 ft 472 kts 203°
2026-04-30 13:19 51.23606 20.24734 26335 ft 475 kts 203°
2026-04-30 13:20 51.20602 20.22517 26721 ft 477 kts 203°
2026-04-30 13:20 51.17585 20.20298 27063 ft 479 kts 203°
2026-04-30 13:20 51.14544 20.18063 27392 ft 483 kts 203°
2026-04-30 13:20 51.11483 20.15819 27718 ft 486 kts 202°
2026-04-30 13:21 51.08404 20.13561 28030 ft 489 kts 202°
2026-04-30 13:21 51.05306 20.11287 28338 ft 492 kts 202°
2026-04-30 13:21 51.02191 20.08999 28643 ft 495 kts 202°
2026-04-30 13:22 50.95920 20.04398 29302 ft 499 kts 202°
2026-04-30 13:22 50.92756 20.02085 29596 ft 502 kts 202°
2026-04-30 13:22 50.86387 19.97446 30156 ft 507 kts 202°
2026-04-30 13:23 50.83167 19.95107 30422 ft 510 kts 202°
2026-04-30 13:23 50.76697 19.90428 30953 ft 512 kts 202°
2026-04-30 13:24 50.70217 19.85753 31467 ft 513 kts 202°
2026-04-30 13:24 50.63735 19.81087 32121 ft 511 kts 202°
2026-04-30 13:25 50.57281 19.76451 32783 ft 508 kts 202°
2026-04-30 13:25 50.50872 19.71865 33516 ft 505 kts 202°
2026-04-30 13:26 50.41313 19.65045 34484 ft 502 kts 203°
2026-04-30 13:26 50.34963 19.60541 35041 ft 499 kts 203°
2026-04-30 13:27 50.28707 19.56113 35593 ft 496 kts 203°
2026-04-30 13:28 50.19304 19.49467 36290 ft 493 kts 204°
2026-04-30 13:28 50.13073 19.45086 36408 ft 488 kts 204°
2026-04-30 13:28 50.09979 19.42917 36407 ft 486 kts 204°
2026-04-30 13:29 49.97647 19.34300 36404 ft 485 kts 204°
2026-04-30 13:31 49.82266 19.23610 36408 ft 484 kts 204°
2026-04-30 13:32 49.66947 19.13048 36408 ft 483 kts 204°
2026-04-30 13:33 49.54695 19.04638 36404 ft 481 kts 204°
2026-04-30 13:34 49.45644 18.97994 36392 ft 480 kts 214°
2026-04-30 13:34 49.38393 18.87564 36382 ft 477 kts 229°
2026-04-30 13:35 49.36142 18.83823 36387 ft 477 kts 229°
2026-04-30 13:36 49.27119 18.68938 36405 ft 476 kts 229°
2026-04-30 13:36 49.20347 18.57836 36386 ft 475 kts 229°
2026-04-30 13:37 49.13586 18.46758 36390 ft 475 kts 229°
2026-04-30 13:38 49.06823 18.35741 36356 ft 474 kts 229°
2026-04-30 13:39 48.97761 18.21063 36368 ft 476 kts 229°
2026-04-30 13:40 48.90987 18.10140 36370 ft 476 kts 229°
2026-04-30 13:40 48.86423 18.02805 36369 ft 476 kts 229°
2026-04-30 13:41 48.81865 17.95505 36372 ft 476 kts 229°
2026-04-30 13:41 48.77304 17.88219 36372 ft 476 kts 229°
2026-04-30 13:42 48.72737 17.80946 36378 ft 476 kts 229°
2026-04-30 13:42 48.65875 17.70055 36380 ft 476 kts 229°
2026-04-30 13:43 48.61306 17.62821 36380 ft 476 kts 229°
2026-04-30 13:43 48.56718 17.55572 36355 ft 477 kts 228°
2026-04-30 13:44 48.52128 17.48351 36363 ft 478 kts 228°
2026-04-30 13:44 48.47521 17.41120 36369 ft 478 kts 228°
2026-04-30 13:45 48.40592 17.30293 36373 ft 478 kts 228°
2026-04-30 13:46 48.35967 17.23106 36393 ft 478 kts 228°
2026-04-30 13:46 48.31345 17.15932 36388 ft 477 kts 228°
2026-04-30 13:47 48.26728 17.08770 36383 ft 477 kts 228°
2026-04-30 13:47 48.22111 17.01628 36392 ft 476 kts 228°
2026-04-30 13:48 48.17301 16.94820 36395 ft 477 kts 219°
2026-04-30 13:48 48.12292 16.88920 36409 ft 476 kts 219°
2026-04-30 13:49 48.07059 16.82760 36397 ft 480 kts 219°
2026-04-30 13:49 48.01806 16.76576 36418 ft 488 kts 219°
2026-04-30 13:50 47.96389 16.70219 36410 ft 496 kts 219°
2026-04-30 13:50 47.88232 16.60673 36414 ft 502 kts 219°
2026-04-30 13:51 47.82707 16.54255 36400 ft 504 kts 219°
2026-04-30 13:51 47.77169 16.47825 36405 ft 506 kts 219°
2026-04-30 13:52 47.71613 16.41387 36403 ft 507 kts 219°
2026-04-30 13:52 47.66035 16.34938 36400 ft 509 kts 219°
2026-04-30 13:53 47.60440 16.28495 36394 ft 510 kts 219°
2026-04-30 13:53 47.55775 16.23134 36401 ft 511 kts 219°
2026-04-30 13:54 47.49194 16.15602 36383 ft 512 kts 219°
2026-04-30 13:54 47.44505 16.10248 36394 ft 513 kts 219°
2026-04-30 13:55 47.38848 16.03805 36395 ft 514 kts 219°
2026-04-30 13:55 47.32263 15.96323 36390 ft 512 kts 219°
2026-04-30 13:56 47.29490 15.93183 36380 ft 493 kts 219°
2026-04-30 13:56 47.27679 15.91135 36360 ft 481 kts 219°
2026-04-30 13:56 47.22433 15.85205 36373 ft 472 kts 219°
2026-04-30 13:57 47.17227 15.79325 36365 ft 471 kts 219°
2026-04-30 13:57 47.12025 15.73484 36361 ft 470 kts 219°
2026-04-30 13:58 47.04279 15.64801 36358 ft 469 kts 219°
2026-04-30 13:59 46.99057 15.58966 36355 ft 468 kts 219°
2026-04-30 13:59 46.93881 15.53184 36347 ft 468 kts 219°
2026-04-30 14:00 46.88702 15.47420 36355 ft 467 kts 219°
2026-04-30 14:00 46.80940 15.38822 36362 ft 467 kts 219°
2026-04-30 14:01 46.75763 15.33121 36361 ft 466 kts 219°
2026-04-30 14:01 46.70592 15.27430 36364 ft 465 kts 219°
2026-04-30 14:02 46.65432 15.21753 36350 ft 465 kts 217°
2026-04-30 14:02 46.59855 15.16956 36347 ft 466 kts 211°
2026-04-30 14:03 46.54205 15.12343 36342 ft 465 kts 211°
2026-04-30 14:03 46.48600 15.07773 36348 ft 465 kts 211°
2026-04-30 14:04 46.42968 15.03192 36343 ft 464 kts 211°
2026-04-30 14:04 46.37335 14.98621 36313 ft 464 kts 211°
2026-04-30 14:05 46.31695 14.94064 36319 ft 464 kts 211°
2026-04-30 14:05 46.26062 14.89514 36324 ft 464 kts 211°
2026-04-30 14:06 46.17601 14.82701 36325 ft 463 kts 211°
2026-04-30 14:07 46.09120 14.75909 36330 ft 462 kts 211°
2026-04-30 14:08 46.00730 14.69213 36315 ft 461 kts 212°
2026-04-30 14:08 45.92319 14.62503 36327 ft 461 kts 212°
2026-04-30 14:09 45.86716 14.58047 36324 ft 460 kts 211°
2026-04-30 14:10 45.78315 14.51399 36323 ft 460 kts 211°
2026-04-30 14:10 45.72710 14.46973 36313 ft 460 kts 211°
2026-04-30 14:11 45.67686 14.43013 36313 ft 460 kts 211°
2026-04-30 14:11 45.61917 14.38487 36303 ft 459 kts 212°
2026-04-30 14:12 45.56317 14.34102 36295 ft 459 kts 212°
2026-04-30 14:12 45.51230 14.30116 36289 ft 459 kts 212°
2026-04-30 14:13 45.46431 14.26439 36267 ft 459 kts 212°
2026-04-30 14:13 45.42720 14.23557 36269 ft 458 kts 212°
2026-04-30 14:14 45.39176 14.20484 36264 ft 455 kts 218°
2026-04-30 14:14 45.36757 14.18293 36267 ft 457 kts 213°